Flora, IL

4:35 PM CST on January 21, 2017 (GMT -0600)
Flora

Weather History for KFOA - December, 2012

Change the Weather History Date:

Sunday, December 16, 2012

  Actual Average (KSLO) Record (KSLO)
Temperature  
Mean Temperature 42 °F -  
Max Temperature 49 °F 40 °F 67 °F (1984)
Min Temperature 35 °F 24 °F -15 °F (1989)
Degree Days  
Heating Degree Days 23    
Moisture  
Dew Point 43 °F    
Average Humidity 94    
Maximum Humidity 100    
Minimum Humidity 79    
Precipitation  
Precipitation 0.01 in - - ()
Sea Level Pressure  
Sea Level Pressure 29.73 in    
Wind  
Wind Speed 5 mph (SW)    
Max Wind Speed 8 mph    
Max Gust Speed -    
Visibility 6 miles    
Events Fog    
Averages and records for this station are not official NWS values.
T = Trace of Precipitation, MM = Missing Value Source: NWS Daily Summary

Daily Weather History Graph

Daily Weather History Graph

Search for Another Location

Airport or City:

Trip Planner

Search our weather history database for the weather conditions in past years. The results will help you decide how hot, cold, wet, or windy it might be!

Date:

Astronomy

Dec. 16, 2012 Rise Set
Actual Time 7:05 AM CST 4:33 PM CST
Civil Twilight 6:35 AM CST 5:03 PM CST
Nautical Twilight 6:02 AM CST 5:37 PM CST
Astronomical Twilight 5:29 AM CST 6:09 PM CST
Moon 9:40 AM CST (12/16) 8:45 PM CST (12/16)
Length of Visible Light 10h 28m
Length of Day
9h 28m
Waxing Crescent, 16% of the Moon is Illuminated
Dec 16
Waxing Crescent
Dec 19
First Quarter
Dec 28
Full
Jan 4
Last Quarter
Jan 11
New

Hourly Weather History & Observations

Time (CST) Temp. Windchill Dew Point Humidity Pressure Visibility Wind Dir Wind Speed Gust Speed Precip Events Conditions
12:15 AM 49.3 °F - 48.6 °F 97% 29.72 in 7.0 mi SSW 5.8 mph - N/A   Clear
12:35 AM 49.6 °F - 48.9 °F 97% 29.72 in 7.0 mi SSW 8.1 mph - N/A   Clear
12:55 AM 49.5 °F - 48.7 °F 97% 29.72 in 7.0 mi SSW 6.9 mph - N/A   Clear
1:15 AM 49.5 °F - 48.7 °F 97% 29.72 in 7.0 mi SSW 6.9 mph - N/A   Clear
1:35 AM 49.3 °F - 48.6 °F 97% 29.71 in 5.0 mi SSW 6.9 mph - N/A   Clear
1:55 AM 48.4 °F - 47.7 °F 97% 29.72 in 4.0 mi SSW 5.8 mph - N/A   Clear
2:15 AM 47.5 °F - 46.9 °F 98% 29.72 in 0.5 mi South 4.6 mph - N/A Fog Fog
2:35 AM 46.6 °F - 46.2 °F 99% 29.73 in 0.2 mi South 6.9 mph - N/A Fog Fog
2:55 AM 45.1 °F 42.0 °F 45.1 °F 100% 29.72 in 0.2 mi South 5.8 mph - N/A Fog Fog
3:15 AM 44.1 °F 41.5 °F 43.9 °F 99% 29.72 in 0.2 mi South 4.6 mph - N/A Fog Fog
3:35 AM 43.5 °F 40.9 °F 43.2 °F 99% 29.72 in 0.2 mi South 4.6 mph - N/A Fog Fog
3:55 AM 42.1 °F 40.2 °F 41.9 °F 99% 29.72 in 0.2 mi South 3.5 mph - N/A Fog Fog
4:15 AM 42.8 °F 41.1 °F 42.8 °F 100% 29.72 in 0.2 mi South 3.5 mph - N/A Fog Fog
4:35 AM 41.9 °F 39.0 °F 41.9 °F 100% 29.72 in 0.2 mi South 4.6 mph - N/A Fog Fog
4:55 AM 40.1 °F 36.1 °F 40.1 °F 100% 29.72 in 0.2 mi South 5.8 mph - 0.01 in Fog Fog
5:15 AM 40.1 °F 36.1 °F 40.1 °F 100% 29.72 in 0.2 mi South 5.8 mph - N/A Fog Fog
5:35 AM 44.1 °F 40.1 °F 43.9 °F 99% 29.72 in 0.2 mi South 6.9 mph - N/A   Drizzle
5:55 AM 42.8 °F 40.1 °F 42.8 °F 100% 29.73 in 0.2 mi SSW 4.6 mph - N/A Fog Fog
6:15 AM 43.3 °F 40.7 °F 43.3 °F 100% 29.74 in 0.2 mi SW 4.6 mph - N/A Fog Fog
6:35 AM 45.5 °F 42.5 °F 45.5 °F 100% 29.73 in 4.0 mi WSW 5.8 mph - N/A   Scattered Clouds
6:55 AM 45.9 °F 42.3 °F 45.7 °F 99% 29.74 in 10.0 mi WSW 6.9 mph - N/A   Clear
7:15 AM 44.1 °F 40.1 °F 44.1 °F 100% 29.74 in 10.0 mi SW 6.9 mph - N/A   Clear
7:35 AM 43.5 °F 40.9 °F 43.5 °F 100% 29.74 in 10.0 mi WSW 4.6 mph - N/A   Clear
7:55 AM 45.0 °F 42.6 °F 44.8 °F 99% 29.74 in 10.0 mi WSW 4.6 mph - N/A   Clear
8:15 AM 45.1 °F 42.0 °F 45.0 °F 99% 29.75 in 10.0 mi SW 5.8 mph - N/A   Clear
8:35 AM 46.4 °F 42.9 °F 46.4 °F 100% 29.76 in 10.0 mi SSW 6.9 mph - N/A   Clear
8:55 AM 46.4 °F 44.3 °F 46.2 °F 99% 29.76 in 10.0 mi SW 4.6 mph - N/A   Clear
9:15 AM 47.1 °F - 47.1 °F 100% 29.76 in 10.0 mi WSW 4.6 mph - N/A   Clear
9:35 AM 47.5 °F - 47.3 °F 99% 29.76 in 10.0 mi WSW 5.8 mph - N/A   Clear
9:55 AM 48.2 °F - 45.3 °F 90% 29.76 in 10.0 mi WSW 5.8 mph - N/A   Clear
10:15 AM 48.7 °F - 44.1 °F 84% 29.76 in 10.0 mi West 4.6 mph - N/A   Clear
10:35 AM 49.1 °F - 43.9 °F 82% 29.75 in 10.0 mi West 3.5 mph - N/A   Clear
10:55 AM 49.1 °F - 43.5 °F 81% 29.75 in 10.0 mi Calm Calm - N/A   Clear
11:15 AM 49.3 °F - 43.7 °F 81% 29.74 in 10.0 mi WSW 5.8 mph - N/A   Clear
11:35 AM 49.3 °F - 43.2 °F 79% 29.72 in 10.0 mi WSW 3.5 mph - N/A   Clear
11:55 AM 49.3 °F - 43.0 °F 79% 29.71 in 10.0 mi West 5.8 mph - N/A   Clear
12:15 PM 49.3 °F - 43.7 °F 81% 29.71 in 10.0 mi West 4.6 mph - N/A   Clear
12:35 PM 49.3 °F - 43.5 °F 81% 29.71 in 10.0 mi WSW 3.5 mph - N/A   Clear
12:55 PM 49.6 °F - 43.7 °F 80% 29.70 in 10.0 mi Calm Calm - N/A   Clear
1:15 PM 49.8 °F - 43.9 °F 80% 29.70 in 10.0 mi SSW 3.5 mph - N/A   Clear
1:35 PM 49.6 °F - 44.1 °F 81% 29.70 in 10.0 mi SSW 4.6 mph - N/A   Clear
1:55 PM 49.5 °F - 44.6 °F 83% 29.71 in 10.0 mi SSW 4.6 mph - N/A   Clear
2:15 PM 49.3 °F - 44.2 °F 83% 29.71 in 10.0 mi SW 3.5 mph - N/A   Clear
2:35 PM 49.3 °F - 44.6 °F 84% 29.70 in 10.0 mi Calm Calm - N/A   Clear
2:55 PM 48.7 °F - 44.8 °F 86% 29.69 in 10.0 mi Calm Calm - N/A   Clear
3:15 PM 49.3 °F - 44.1 °F 82% 29.69 in 10.0 mi Calm Calm - N/A   Clear
3:35 PM 48.6 °F - 43.9 °F 84% 29.69 in 10.0 mi Calm Calm - N/A   Clear
3:55 PM 48.7 °F - 43.7 °F 83% 29.69 in 10.0 mi Calm Calm - N/A   Clear
4:15 PM 47.5 °F - 43.7 °F 87% 29.69 in 10.0 mi North 3.5 mph - N/A   Clear
4:35 PM 47.5 °F - 43.7 °F 87% 29.69 in 10.0 mi Calm Calm - N/A   Clear
4:55 PM 45.9 °F - 43.3 °F 91% 29.69 in 10.0 mi Calm Calm - N/A   Clear
5:15 PM 43.0 °F - 42.1 °F 97% 29.70 in 10.0 mi Calm Calm - N/A   Clear
5:35 PM 39.7 °F - 39.4 °F 99% 29.71 in 1.2 mi Calm Calm - N/A   Mist
5:55 PM 42.3 °F - 42.1 °F 99% 29.72 in 1.0 mi Calm Calm - N/A   Mist
6:15 PM 42.4 °F 40.7 °F 42.3 °F 99% 29.72 in 7.0 mi North 3.5 mph - N/A   Clear
6:35 PM 41.4 °F 39.4 °F 41.2 °F 99% 29.72 in 4.0 mi North 3.5 mph - N/A   Clear
6:55 PM 40.6 °F 38.6 °F 40.6 °F 100% 29.73 in 2.0 mi North 3.5 mph - N/A   Clear
7:15 PM 38.8 °F 36.5 °F 38.8 °F 100% 29.73 in 0.8 mi North 3.5 mph - N/A   Mist
7:35 PM 40.5 °F 37.3 °F 40.5 °F 100% 29.72 in 4.0 mi North 4.6 mph - N/A   Clear
7:55 PM 39.9 °F 35.8 °F 39.9 °F 100% 29.73 in 3.0 mi NNW 5.8 mph - N/A   Clear
8:15 PM 39.2 °F 35.0 °F 39.2 °F 100% 29.74 in 5.0 mi North 5.8 mph - N/A   Clear
8:35 PM 39.6 °F 36.3 °F 39.6 °F 100% 29.75 in 7.0 mi North 4.6 mph - N/A   Clear
8:55 PM 40.8 °F 38.8 °F 40.8 °F 100% 29.74 in 7.0 mi NNE 3.5 mph - N/A   Scattered Clouds
9:15 PM 39.6 °F - 39.6 °F 100% 29.74 in 5.0 mi Calm Calm - N/A   Scattered Clouds
9:35 PM 40.3 °F - 40.3 °F 100% 29.74 in 5.0 mi Calm Calm - N/A   Clear
9:55 PM 37.4 °F - 37.4 °F 100% 29.74 in 0.5 mi Calm Calm - N/A Fog Fog
10:15 PM 35.6 °F - 35.6 °F 100% 29.74 in 0.5 mi Calm Calm - N/A Fog Fog
10:35 PM 37.4 °F - 37.4 °F 100% 29.74 in 0.2 mi Calm Calm - N/A Fog Fog
10:55 PM 37.2 °F - 37.2 °F 100% 29.74 in 0.2 mi Calm Calm - N/A Fog Fog
11:15 PM 37.0 °F 34.5 °F 37.0 °F 100% 29.75 in 1.5 mi NNW 3.5 mph - N/A   Overcast
11:35 PM 39.6 °F 37.4 °F 39.6 °F 100% 29.75 in 3.0 mi North 3.5 mph - N/A   Overcast
11:55 PM 39.2 °F - 39.2 °F 100% 29.75 in 3.0 mi Calm Calm - N/A   Overcast